Time,TemperatureF,DewpointF,PressureIn,WindDirection,WindDirectionDegrees,WindSpeedMPH,WindSpeedGustMPH,Humidity,HourlyPrecipIn,Conditions,Clouds,dailyrainin,SolarRadiationWatts/m^2,SoftwareType,DateUTC
2013-02-02 00:08:00,48.6,45.0,30.33,North,360,0.0,3.0,86,0.00,,,0.00,0,weatherlink.com 1.10,2013-02-02 08:08:00,
2013-02-02 00:23:00,48.8,45.0,30.33,North,360,0.0,1.0,86,0.00,,,0.00,0,weatherlink.com 1.10,2013-02-02 08:23:00,
2013-02-02 00:38:00,49.1,45.0,30.33,North,360,0.0,1.0,86,0.00,,,0.00,0,weatherlink.com 1.10,2013-02-02 08:38:00,
2013-02-02 00:53:00,48.9,45.0,30.34,North,360,0.0,1.0,87,0.00,,,0.00,0,weatherlink.com 1.10,2013-02-02 08:53:00,
2013-02-02 01:08:00,48.9,45.0,30.34,North,360,0.0,1.0,87,0.00,,,0.00,0,weatherlink.com 1.10,2013-02-02 09:08:00,
2013-02-02 01:23:00,49.2,46.0,30.34,North,360,0.0,1.0,87,0.00,,,0.00,0,weatherlink.com 1.10,2013-02-02 09:23:00,
2013-02-02 01:38:00,49.4,45.0,30.33,North,360,0.0,1.0,86,0.00,,,0.00,0,weatherlink.com 1.10,2013-02-02 09:38:00,
2013-02-02 01:53:00,50.1,46.0,30.33,North,355,3.0,3.0,86,0.00,,,0.00,0,weatherlink.com 1.10,2013-02-02 09:53:00,
2013-02-02 02:08:00,52.8,46.0,30.32,NNW,337,1.0,4.0,78,0.00,,,0.00,0,weatherlink.com 1.10,2013-02-02 10:08:00,
2013-02-02 02:23:00,53.0,45.0,30.33,NW,306,0.0,5.0,74,0.00,,,0.00,0,weatherlink.com 1.10,2013-02-02 10:23:00,
2013-02-02 02:38:00,52.5,45.0,30.32,NW,306,0.0,1.0,75,0.00,,,0.00,0,weatherlink.com 1.10,2013-02-02 10:38:00,
2013-02-02 02:53:00,51.2,44.0,30.33,NW,306,0.0,0.0,77,0.00,,,0.00,0,weatherlink.com 1.10,2013-02-02 10:53:00,
2013-02-02 03:08:00,49.9,44.0,30.33,NW,306,0.0,1.0,81,0.00,,,0.00,0,weatherlink.com 1.10,2013-02-02 11:08:00,
2013-02-02 03:23:00,49.0,44.0,30.33,NW,306,0.0,1.0,83,0.00,,,0.00,0,weatherlink.com 1.10,2013-02-02 11:23:00,
2013-02-02 03:38:00,48.1,44.0,30.33,NW,306,0.0,1.0,84,0.00,,,0.00,0,weatherlink.com 1.10,2013-02-02 11:38:00,
2013-02-02 03:53:00,47.4,43.0,30.33,NW,306,0.0,1.0,85,0.00,,,0.00,0,weatherlink.com 1.10,2013-02-02 11:53:00,
2013-02-02 04:08:00,47.6,43.0,30.34,NW,306,0.0,1.0,85,0.00,,,0.00,0,weatherlink.com 1.10,2013-02-02 12:08:00,
2013-02-02 04:23:00,47.6,43.0,30.34,NW,306,1.0,3.0,85,0.00,,,0.00,0,weatherlink.com 1.10,2013-02-02 12:23:00,
2013-02-02 04:38:00,48.7,44.0,30.34,NW,306,0.0,1.0,84,0.00,,,0.00,0,weatherlink.com 1.10,2013-02-02 12:38:00,
2013-02-02 04:53:00,48.9,44.0,30.33,NW,306,0.0,1.0,83,0.00,,,0.00,0,weatherlink.com 1.10,2013-02-02 12:53:00,
2013-02-02 05:08:00,49.6,44.0,30.33,NW,306,0.0,0.0,82,0.00,,,0.00,0,weatherlink.com 1.10,2013-02-02 13:08:00,
2013-02-02 05:23:00,49.0,44.0,30.34,NW,306,0.0,1.0,82,0.00,,,0.00,0,weatherlink.com 1.10,2013-02-02 13:23:00,
2013-02-02 05:38:00,48.4,43.0,30.34,NW,306,0.0,2.0,82,0.00,,,0.00,0,weatherlink.com 1.10,2013-02-02 13:38:00,
2013-02-02 05:53:00,48.3,43.0,30.34,NW,306,1.0,3.0,82,0.00,,,0.00,0,weatherlink.com 1.10,2013-02-02 13:53:00,
2013-02-02 06:09:00,48.5,44.0,30.34,NW,306,0.0,0.0,83,0.00,,,0.00,0,weatherlink.com 1.10,2013-02-02 14:09:00,
2013-02-02 06:23:00,48.7,44.0,30.34,NW,306,0.0,1.0,83,0.00,,,0.00,0,weatherlink.com 1.10,2013-02-02 14:23:00,
2013-02-02 06:38:00,48.0,43.0,30.34,NW,306,1.0,1.0,84,0.00,,,0.00,0,weatherlink.com 1.10,2013-02-02 14:38:00,
2013-02-02 06:53:00,47.5,43.0,30.35,NW,306,0.0,1.0,85,0.00,,,0.00,5,weatherlink.com 1.10,2013-02-02 14:53:00,
2013-02-02 07:08:00,47.6,44.0,30.35,NW,306,0.0,2.0,86,0.00,,,0.00,21,weatherlink.com 1.10,2013-02-02 15:08:00,
2013-02-02 07:23:00,48.5,44.0,30.35,NW,306,0.0,1.0,85,0.00,,,0.00,42,weatherlink.com 1.10,2013-02-02 15:23:00,
2013-02-02 07:39:00,49.2,45.0,30.35,NW,306,0.0,1.0,86,0.00,,,0.00,72,weatherlink.com 1.10,2013-02-02 15:39:00,
2013-02-02 07:54:00,51.1,47.0,30.35,NW,306,0.0,0.0,86,0.00,,,0.00,93,weatherlink.com 1.10,2013-02-02 15:54:00,
2013-02-02 08:09:00,53.1,49.0,30.36,NW,306,0.0,1.0,86,0.00,,,0.00,132,weatherlink.com 1.10,2013-02-02 16:09:00,
2013-02-02 08:24:00,55.1,49.0,30.36,NW,306,0.0,1.0,80,0.00,,,0.00,144,weatherlink.com 1.10,2013-02-02 16:24:00,
2013-02-02 08:39:00,57.4,50.0,30.36,NW,306,0.0,1.0,75,0.00,,,0.00,151,weatherlink.com 1.10,2013-02-02 16:39:00,
2013-02-02 08:54:00,58.9,49.0,30.36,NW,306,0.0,0.0,71,0.00,,,0.00,171,weatherlink.com 1.10,2013-02-02 16:54:00,
2013-02-02 09:09:00,60.6,51.0,30.36,NW,306,0.0,0.0,70,0.00,,,0.00,193,weatherlink.com 1.10,2013-02-02 17:09:00,
2013-02-02 09:24:00,62.8,51.0,30.36,NW,306,0.0,1.0,65,0.00,,,0.00,281,weatherlink.com 1.10,2013-02-02 17:24:00,
2013-02-02 09:39:00,64.3,49.0,30.36,NW,306,0.0,0.0,58,0.00,,,0.00,253,weatherlink.com 1.10,2013-02-02 17:39:00,
2013-02-02 09:54:00,65.0,50.0,30.35,NW,306,0.0,0.0,58,0.00,,,0.00,206,weatherlink.com 1.10,2013-02-02 17:54:00,
2013-02-02 10:09:00,66.6,48.0,30.35,NW,306,0.0,0.0,52,0.00,,,0.00,436,weatherlink.com 1.10,2013-02-02 18:09:00,
2013-02-02 10:24:00,68.5,50.0,30.35,West,271,0.0,1.0,51,0.00,,,0.00,336,weatherlink.com 1.10,2013-02-02 18:24:00,
2013-02-02 10:39:00,68.9,47.0,30.34,West,271,0.0,0.0,46,0.00,,,0.00,271,weatherlink.com 1.10,2013-02-02 18:39:00,
2013-02-02 10:54:00,69.6,47.0,30.34,West,271,0.0,0.0,44,0.00,,,0.00,318,weatherlink.com 1.10,2013-02-02 18:54:00,
2013-02-02 11:09:00,70.1,48.0,30.34,West,271,0.0,1.0,45,0.00,,,0.00,322,weatherlink.com 1.10,2013-02-02 19:09:00,
2013-02-02 11:25:00,71.0,49.0,30.33,South,187,0.0,2.0,46,0.00,,,0.00,432,weatherlink.com 1.10,2013-02-02 19:25:00,
2013-02-02 11:39:00,71.7,44.0,30.32,NW,321,0.0,4.0,37,0.00,,,0.00,295,weatherlink.com 1.10,2013-02-02 19:39:00,
2013-02-02 11:54:00,71.2,46.0,30.31,NNW,348,0.0,3.0,40,0.00,,,0.00,257,weatherlink.com 1.10,2013-02-02 19:54:00,
2013-02-02 12:10:00,71.5,45.0,30.30,NNW,342,0.0,3.0,39,0.00,,,0.00,341,weatherlink.com 1.10,2013-02-02 20:10:00,
2013-02-02 12:25:00,72.8,45.0,30.30,NNW,342,0.0,3.0,37,0.00,,,0.00,401,weatherlink.com 1.10,2013-02-02 20:25:00,
2013-02-02 12:40:00,73.3,43.0,30.29,NW,318,0.0,4.0,34,0.00,,,0.00,411,weatherlink.com 1.10,2013-02-02 20:40:00,
2013-02-02 12:55:00,72.9,46.0,30.28,West,259,1.0,5.0,39,0.00,,,0.00,327,weatherlink.com 1.10,2013-02-02 20:55:00,
2013-02-02 13:10:00,72.4,46.0,30.27,WSW,253,1.0,5.0,39,0.00,,,0.00,255,weatherlink.com 1.10,2013-02-02 21:10:00,
2013-02-02 13:25:00,72.6,43.0,30.27,WNW,289,2.0,3.0,35,0.00,,,0.00,264,weatherlink.com 1.10,2013-02-02 21:25:00,
2013-02-02 13:40:00,72.7,43.0,30.26,NNW,332,3.0,4.0,35,0.00,,,0.00,216,weatherlink.com 1.10,2013-02-02 21:40:00,
2013-02-02 13:55:00,72.6,45.0,30.26,NW,325,2.0,4.0,37,0.00,,,0.00,169,weatherlink.com 1.10,2013-02-02 21:55:00,
2013-02-02 14:10:00,72.0,49.0,30.26,NNW,341,3.0,4.0,44,0.00,,,0.00,130,weatherlink.com 1.10,2013-02-02 22:10:00,
2013-02-02 14:25:00,71.3,50.0,30.26,NNW,338,0.0,3.0,48,0.00,,,0.00,165,weatherlink.com 1.10,2013-02-02 22:25:00,
2013-02-02 14:40:00,71.0,50.0,30.26,NNW,333,2.0,4.0,48,0.00,,,0.00,127,weatherlink.com 1.10,2013-02-02 22:40:00,
2013-02-02 14:55:00,70.9,50.0,30.26,NW,322,2.0,5.0,47,0.00,,,0.00,102,weatherlink.com 1.10,2013-02-02 22:55:00,
2013-02-02 15:10:00,70.3,51.0,30.25,North,350,0.0,4.0,51,0.00,,,0.00,93,weatherlink.com 1.10,2013-02-02 23:10:00,
2013-02-02 15:25:00,69.6,51.0,30.25,NNW,336,1.0,3.0,52,0.00,,,0.00,72,weatherlink.com 1.10,2013-02-02 23:25:00,
2013-02-02 15:40:00,69.2,53.0,30.25,NNW,336,0.0,1.0,56,0.00,,,0.00,56,weatherlink.com 1.10,2013-02-02 23:40:00,
2013-02-02 15:55:00,68.3,54.0,30.25,NNW,336,0.0,1.0,61,0.00,,,0.00,33,weatherlink.com 1.10,2013-02-02 23:55:00,
2013-02-02 16:10:00,67.4,54.0,30.26,NNW,336,0.0,0.0,63,0.00,,,0.00,28,weatherlink.com 1.10,2013-02-03 00:10:00,
2013-02-02 16:25:00,66.4,52.0,30.26,NNW,336,0.0,1.0,60,0.00,,,0.00,23,weatherlink.com 1.10,2013-02-03 00:25:00,
2013-02-02 16:40:00,66.5,49.0,30.27,NNW,343,0.0,3.0,54,0.00,,,0.00,33,weatherlink.com 1.10,2013-02-03 00:40:00,
2013-02-02 16:55:00,66.9,51.0,30.27,NNW,343,0.0,1.0,56,0.00,,,0.00,16,weatherlink.com 1.10,2013-02-03 00:55:00,
2013-02-02 17:10:00,66.1,51.0,30.28,NNW,343,0.0,1.0,58,0.00,,,0.00,0,weatherlink.com 1.10,2013-02-03 01:10:00,
2013-02-02 17:29:00,65.1,51.0,30.28,NNW,343,0.0,3.0,60,0.00,,,0.00,0,weatherlink.com 1.10,2013-02-03 01:29:00,
2013-02-02 17:40:00,64.7,51.0,30.28,NNW,338,0.0,3.0,61,0.00,,,0.00,0,weatherlink.com 1.10,2013-02-03 01:40:00,
2013-02-02 17:55:00,64.0,51.0,30.29,NNW,338,0.0,1.0,63,0.00,,,0.00,0,weatherlink.com 1.10,2013-02-03 01:55:00,
2013-02-02 18:10:00,63.1,51.0,30.29,NNW,338,0.0,1.0,66,0.00,,,0.00,0,weatherlink.com 1.10,2013-02-03 02:10:00,
2013-02-02 18:25:00,62.1,52.0,30.29,NNW,338,0.0,1.0,69,0.00,,,0.00,0,weatherlink.com 1.10,2013-02-03 02:25:00,
2013-02-02 18:40:00,61.7,52.0,30.29,NNW,338,2.0,3.0,71,0.00,,,0.00,0,weatherlink.com 1.10,2013-02-03 02:40:00,
2013-02-02 18:55:00,62.8,52.0,30.29,North,355,1.0,4.0,67,0.00,,,0.00,0,weatherlink.com 1.10,2013-02-03 02:55:00,
2013-02-02 19:10:00,62.1,52.0,30.30,North,355,2.0,3.0,69,0.00,,,0.00,0,weatherlink.com 1.10,2013-02-03 03:10:00,
2013-02-02 19:25:00,61.7,52.0,30.30,North,355,0.0,1.0,70,0.00,,,0.00,0,weatherlink.com 1.10,2013-02-03 03:25:00,
2013-02-02 19:41:00,60.7,52.0,30.31,North,355,0.0,1.0,73,0.00,,,0.00,0,weatherlink.com 1.10,2013-02-03 03:41:00,
2013-02-02 19:55:00,59.7,52.0,30.30,North,355,0.0,0.0,75,0.00,,,0.00,0,weatherlink.com 1.10,2013-02-03 03:55:00,
2013-02-02 20:10:00,58.9,52.0,30.30,North,355,0.0,1.0,78,0.00,,,0.00,0,weatherlink.com 1.10,2013-02-03 04:10:00,
2013-02-02 20:25:00,58.5,52.0,30.30,North,355,0.0,1.0,78,0.00,,,0.00,0,weatherlink.com 1.10,2013-02-03 04:25:00,
2013-02-02 20:40:00,59.6,52.0,30.30,North,360,0.0,1.0,75,0.00,,,0.00,0,weatherlink.com 1.10,2013-02-03 04:40:00,
2013-02-02 20:55:00,59.6,52.0,30.30,North,360,0.0,0.0,76,0.00,,,0.00,0,weatherlink.com 1.10,2013-02-03 04:55:00,
2013-02-02 21:10:00,58.9,52.0,30.30,North,360,0.0,0.0,78,0.00,,,0.00,0,weatherlink.com 1.10,2013-02-03 05:10:00,
2013-02-02 21:25:00,58.3,52.0,30.30,North,360,0.0,1.0,79,0.00,,,0.00,0,weatherlink.com 1.10,2013-02-03 05:25:00,
2013-02-02 21:40:00,57.7,52.0,30.30,North,360,0.0,0.0,81,0.00,,,0.00,0,weatherlink.com 1.10,2013-02-03 05:40:00,
2013-02-02 21:55:00,57.5,52.0,30.30,North,360,0.0,0.0,82,0.00,,,0.00,0,weatherlink.com 1.10,2013-02-03 05:55:00,
2013-02-02 22:10:00,57.2,52.0,30.30,North,360,0.0,0.0,83,0.00,,,0.00,0,weatherlink.com 1.10,2013-02-03 06:10:00,
2013-02-02 22:25:00,56.9,52.0,30.30,North,360,0.0,0.0,84,0.00,,,0.00,0,weatherlink.com 1.10,2013-02-03 06:25:00,
2013-02-02 22:40:00,56.6,52.0,30.31,North,360,0.0,1.0,85,0.00,,,0.00,0,weatherlink.com 1.10,2013-02-03 06:40:00,
2013-02-02 22:55:00,56.7,52.0,30.31,North,360,0.0,1.0,84,0.00,,,0.00,0,weatherlink.com 1.10,2013-02-03 06:55:00,
2013-02-02 23:10:00,57.0,52.0,30.30,North,360,0.0,2.0,83,0.00,,,0.00,0,weatherlink.com 1.10,2013-02-03 07:10:00,
2013-02-02 23:25:00,57.5,52.0,30.30,NNW,342,0.0,3.0,82,0.00,,,0.00,0,weatherlink.com 1.10,2013-02-03 07:25:00,
2013-02-02 23:40:00,58.2,52.0,30.30,North,5,3.0,5.0,79,0.00,,,0.00,0,weatherlink.com 1.10,2013-02-03 07:40:00,
2013-02-02 23:55:00,58.4,52.0,30.30,NW,325,3.0,5.0,78,0.00,,,0.00,0,weatherlink.com 1.10,2013-02-03 07:55:00,